Location: Napier
(39.4830°S, 176.9170°E)
Time: 03:21:42
(UTC+12:00)

CZ-4B DEB - Pass Details

Date: 15 August 2020
Orbit: 841 x 861 km, 99.1° (Epoch: 19 September)

Event Time Altitude Azimuth Distance (km) Brightness Sun altitude
Rises 17:55:57 0° 166° (SSE) 3,461 7.1 -4.8°
Reaches altitude 10° 17:58:21 10° 165° (SSE) 2,515 6.4 -5.3°
Maximum altitude 18:03:57 86° 75° (ENE) 866 4.3 -6.4°
Drops below altitude 10° 18:09:27 10° 346° (NNW) 2,470 7.0 -7.4°
Sets 18:11:48 0° 345° (NNW) 3,395 7.7 -7.8°
